TimeAST,TemperatureF,Dew PointF,Humidity,Sea Level PressureIn,VisibilityMPH,Wind Direction,Wind SpeedMPH,Gust SpeedMPH,PrecipitationIn,Events,Conditions,WindDirDegrees,DateUTC
12:56 AM,79.0,75.0,88,29.95,10.0,Calm,Calm,-,N/A,,Partly Cloudy,0,2013-10-07 04:56:00
1:56 AM,79.0,75.0,88,29.94,10.0,Calm,Calm,-,N/A,,Partly Cloudy,0,2013-10-07 05:56:00
2:56 AM,78.1,75.0,90,29.93,10.0,SSW,3.5,-,N/A,,Partly Cloudy,200,2013-10-07 06:56:00
3:56 AM,78.1,75.0,90,29.92,10.0,Calm,Calm,-,N/A,,Partly Cloudy,0,2013-10-07 07:56:00
4:56 AM,78.1,73.9,87,29.91,10.0,SSW,4.6,-,N/A,,Partly Cloudy,210,2013-10-07 08:56:00
5:56 AM,77.0,73.9,90,29.92,10.0,Calm,Calm,-,N/A,,Scattered Clouds,0,2013-10-07 09:56:00
6:56 AM,78.1,73.9,87,29.94,10.0,Calm,Calm,-,N/A,,Scattered Clouds,0,2013-10-07 10:56:00
7:56 AM,81.0,75.0,82,29.96,10.0,Calm,Calm,-,N/A,,Scattered Clouds,0,2013-10-07 11:56:00
8:56 AM,84.0,75.0,74,29.98,10.0,Calm,Calm,-,N/A,,Scattered Clouds,0,2013-10-07 12:56:00
9:56 AM,84.9,75.0,72,29.98,10.0,Variable,3.5,-,N/A,,Scattered Clouds,0,2013-10-07 13:56:00
10:56 AM,84.0,75.0,74,29.97,10.0,North,6.9,-,N/A,,Scattered Clouds,10,2013-10-07 14:56:00
11:56 AM,88.0,75.9,67,29.95,10.0,NE,11.5,-,N/A,,Scattered Clouds,40,2013-10-07 15:56:00
12:56 PM,87.1,75.0,67,29.93,10.0,NE,10.4,-,N/A,,Scattered Clouds,50,2013-10-07 16:56:00
1:56 PM,89.1,77.0,67,29.90,10.0,ENE,15.0,-,N/A,,Mostly Cloudy,60,2013-10-07 17:56:00
2:56 PM,87.1,75.0,67,29.89,10.0,Variable,5.8,-,N/A,,Mostly Cloudy,0,2013-10-07 18:56:00
3:56 PM,87.1,75.0,67,29.90,10.0,ESE,5.8,-,N/A,,Mostly Cloudy,110,2013-10-07 19:56:00
4:56 PM,88.0,72.0,59,29.91,10.0,SSE,5.8,-,N/A,,Mostly Cloudy,150,2013-10-07 20:56:00
5:56 PM,86.0,73.0,65,29.91,10.0,SSE,4.6,-,N/A,,Mostly Cloudy,150,2013-10-07 21:56:00
6:56 PM,84.9,73.0,67,29.91,10.0,SSE,4.6,-,N/A,,Mostly Cloudy,150,2013-10-07 22:56:00
7:56 PM,84.9,73.0,67,29.93,10.0,Calm,Calm,-,N/A,,Partly Cloudy,0,2013-10-07 23:56:00
8:56 PM,84.0,73.9,72,29.96,10.0,Calm,Calm,-,N/A,,Scattered Clouds,0,2013-10-08 00:56:00
9:56 PM,82.9,75.0,77,29.97,10.0,Calm,Calm,-,N/A,,Scattered Clouds,0,2013-10-08 01:56:00
10:56 PM,82.9,75.0,77,29.97,10.0,Calm,Calm,-,N/A,,Partly Cloudy,0,2013-10-08 02:56:00
11:56 PM,82.0,75.0,79,29.97,10.0,Calm,Calm,-,N/A,,Partly Cloudy,0,2013-10-08 03:56:00